LPE2373 SPJC-SCFA

Flight info

Callsign LPE2373
Flight time 1h 53m
Altitude 39000
Route SCO UL550 XONOG UQ803 ENLUS ENLUS5A
Aircraft A319/M-SDE1E2E3FGHIRWYZ/SB1

Departure

Time 2026-04-26 04:13
Airport Jorge Chávez International Airport (SPJC)

Arrival

Time 2026-04-26 06:06
Airport Andrés Sabella Gálvez International Airport (SCFA)
Time Latitude Longitude Altitude Speed Heading
2026-04-26 03:30 -12.03119 -77.11849 80 ft 0 kts 65°
2026-04-26 03:57 -12.03125 -77.11862 80 ft 4 kts 65°
2026-04-26 03:58 -12.03134 -77.11884 67 ft 4 kts 55°
2026-04-26 03:58 -12.03154 -77.11895 68 ft 4 kts 348°
2026-04-26 03:58 -12.03178 -77.11887 69 ft 3 kts 334°
2026-04-26 03:58 -12.03203 -77.11874 67 ft 4 kts 334°
2026-04-26 03:59 -12.03227 -77.11862 71 ft 4 kts 334°
2026-04-26 03:59 -12.03251 -77.11850 70 ft 4 kts 334°
2026-04-26 03:59 -12.03260 -77.11845 71 ft 1 kts 334°
2026-04-26 04:00 -12.03261 -77.11845 71 ft 0 kts 334°
2026-04-26 04:02 -12.03260 -77.11846 71 ft 1 kts 334°
2026-04-26 04:03 -12.03248 -77.11851 66 ft 3 kts 335°
2026-04-26 04:03 -12.03221 -77.11864 68 ft 5 kts 336°
2026-04-26 04:03 -12.03183 -77.11884 70 ft 6 kts 333°
2026-04-26 04:03 -12.03146 -77.11903 68 ft 6 kts 334°
2026-04-26 04:04 -12.03111 -77.11920 71 ft 5 kts 335°
2026-04-26 04:04 -12.03067 -77.11941 73 ft 9 kts 334°
2026-04-26 04:04 -12.03006 -77.11972 74 ft 11 kts 332°
2026-04-26 04:04 -12.02936 -77.12010 70 ft 12 kts 332°
2026-04-26 04:05 -12.02849 -77.12049 68 ft 16 kts 336°
2026-04-26 04:05 -12.02737 -77.12101 68 ft 21 kts 333°
2026-04-26 04:05 -12.02591 -77.12171 66 ft 20 kts 335°
2026-04-26 04:05 -12.02511 -77.12212 63 ft 16 kts 331°
2026-04-26 04:06 -12.02379 -77.12279 57 ft 19 kts 334°
2026-04-26 04:06 -12.02302 -77.12317 54 ft 15 kts 334°
2026-04-26 04:06 -12.02182 -77.12376 51 ft 21 kts 334°
2026-04-26 04:06 -12.02120 -77.12422 49 ft 11 kts 287°
2026-04-26 04:07 -12.02128 -77.12466 45 ft 7 kts 261°
2026-04-26 04:07 -12.02079 -77.12504 46 ft 12 kts 334°
2026-04-26 04:07 -12.01980 -77.12553 44 ft 19 kts 333°
2026-04-26 04:07 -12.01853 -77.12616 45 ft 13 kts 334°
2026-04-26 04:08 -12.01781 -77.12651 45 ft 13 kts 334°
2026-04-26 04:08 -12.01681 -77.12700 45 ft 19 kts 334°
2026-04-26 04:08 -12.01586 -77.12746 41 ft 13 kts 334°
2026-04-26 04:08 -12.01489 -77.12798 41 ft 19 kts 333°
2026-04-26 04:09 -12.01393 -77.12842 40 ft 12 kts 333°
2026-04-26 04:09 -12.01301 -77.12888 39 ft 18 kts 335°
2026-04-26 04:09 -12.01193 -77.12935 38 ft 11 kts 341°
2026-04-26 04:09 -12.01145 -77.12960 38 ft 6 kts 310°
2026-04-26 04:10 -12.01162 -77.13007 38 ft 6 kts 239°
2026-04-26 04:10 -12.01166 -77.13014 38 ft 0 kts 242°
2026-04-26 04:11 -12.01172 -77.13025 38 ft 5 kts 242°
2026-04-26 04:11 -12.01197 -77.13075 37 ft 8 kts 244°
2026-04-26 04:11 -12.01223 -77.13104 37 ft 4 kts 149°
2026-04-26 04:11 -12.01234 -77.13098 37 ft 0 kts 155°
2026-04-26 04:12 -12.01237 -77.13097 37 ft 6 kts 154°
2026-04-26 04:12 -12.01518 -77.12956 38 ft 82 kts 154°
2026-04-26 04:12 -12.02235 -77.12602 47 ft 143 kts 154°
2026-04-26 04:12 -12.03180 -77.12137 620 ft 148 kts 155°
2026-04-26 04:13 -12.04182 -77.11980 1180 ft 150 kts 194°
2026-04-26 04:13 -12.05166 -77.12317 1784 ft 149 kts 198°
2026-04-26 04:13 -12.06155 -77.12642 2370 ft 149 kts 197°
2026-04-26 04:13 -12.07146 -77.12961 2929 ft 150 kts 198°
2026-04-26 04:14 -12.08149 -77.13283 3418 ft 156 kts 198°
2026-04-26 04:14 -12.09243 -77.13636 3700 ft 178 kts 198°
2026-04-26 04:14 -12.10545 -77.13902 3969 ft 203 kts 176°
2026-04-26 04:14 -12.11921 -77.13393 4225 ft 227 kts 151°
2026-04-26 04:15 -12.13374 -77.12570 4582 ft 252 kts 150°
2026-04-26 04:15 -12.14971 -77.11654 5165 ft 270 kts 150°
2026-04-26 04:15 -12.16635 -77.10698 6014 ft 277 kts 150°
2026-04-26 04:15 -12.18322 -77.09735 6864 ft 282 kts 151°
2026-04-26 04:16 -12.20043 -77.08760 7710 ft 285 kts 151°
2026-04-26 04:16 -12.21792 -77.07772 8568 ft 287 kts 151°
2026-04-26 04:16 -12.23552 -77.06777 9412 ft 291 kts 151°
2026-04-26 04:16 -12.25353 -77.05759 10176 ft 296 kts 151°
2026-04-26 04:17 -12.27227 -77.04699 10459 ft 318 kts 150°
2026-04-26 04:17 -12.29275 -77.03542 11024 ft 326 kts 150°
2026-04-26 04:17 -12.31276 -77.02411 11682 ft 331 kts 150°
2026-04-26 04:17 -12.33299 -77.01269 12353 ft 334 kts 150°
2026-04-26 04:18 -12.35346 -77.00113 13017 ft 337 kts 150°
2026-04-26 04:18 -12.37409 -76.98947 13684 ft 341 kts 150°
2026-04-26 04:18 -12.39485 -76.97773 14262 ft 344 kts 150°
2026-04-26 04:18 -12.41590 -76.96580 14838 ft 347 kts 150°
2026-04-26 04:19 -12.43693 -76.95388 15413 ft 350 kts 150°
2026-04-26 04:19 -12.45822 -76.94180 15971 ft 353 kts 150°
2026-04-26 04:19 -12.47282 -76.93352 16352 ft 355 kts 150°
2026-04-26 04:19 -12.50163 -76.91721 17097 ft 359 kts 150°
2026-04-26 04:20 -12.51616 -76.90901 17465 ft 362 kts 150°
2026-04-26 04:20 -12.53884 -76.89619 18042 ft 365 kts 150°
2026-04-26 04:20 -12.56144 -76.88339 18560 ft 368 kts 150°
2026-04-26 04:20 -12.58357 -76.87083 19032 ft 371 kts 150°
2026-04-26 04:21 -12.60746 -76.85726 19536 ft 374 kts 150°
2026-04-26 04:21 -12.63065 -76.84412 20018 ft 377 kts 150°
2026-04-26 04:21 -12.65367 -76.83108 20490 ft 380 kts 150°
2026-04-26 04:21 -12.67686 -76.81793 20953 ft 382 kts 150°
2026-04-26 04:22 -12.70022 -76.80469 21409 ft 385 kts 150°
2026-04-26 04:22 -12.72376 -76.79136 21858 ft 388 kts 150°
2026-04-26 04:22 -12.74740 -76.77795 22304 ft 391 kts 150°
2026-04-26 04:22 -12.77184 -76.76409 22761 ft 394 kts 150°
2026-04-26 04:23 -12.79020 -76.75367 23095 ft 396 kts 150°
2026-04-26 04:23 -12.82446 -76.73420 23695 ft 400 kts 150°
2026-04-26 04:23 -12.84923 -76.72010 24071 ft 403 kts 150°
2026-04-26 04:23 -12.86550 -76.71085 24323 ft 404 kts 149°
2026-04-26 04:24 -12.88994 -76.69695 24703 ft 407 kts 150°
2026-04-26 04:24 -12.91498 -76.68273 25081 ft 409 kts 150°
2026-04-26 04:24 -12.94040 -76.66830 25458 ft 411 kts 149°
2026-04-26 04:24 -12.96587 -76.65382 25831 ft 414 kts 149°
2026-04-26 04:25 -12.99102 -76.63952 26191 ft 416 kts 149°
2026-04-26 04:25 -13.01688 -76.62479 26560 ft 418 kts 149°
2026-04-26 04:25 -13.04232 -76.61030 26915 ft 421 kts 149°
2026-04-26 04:25 -13.06800 -76.59566 27271 ft 423 kts 149°
2026-04-26 04:26 -13.09433 -76.58066 27625 ft 425 kts 149°
2026-04-26 04:26 -13.12181 -76.56502 27999 ft 428 kts 149°
2026-04-26 04:26 -13.14828 -76.54993 28343 ft 430 kts 149°
2026-04-26 04:26 -13.17451 -76.53497 28680 ft 433 kts 149°
2026-04-26 04:27 -13.20125 -76.51974 29019 ft 435 kts 149°
2026-04-26 04:27 -13.22768 -76.50469 29343 ft 438 kts 149°
2026-04-26 04:27 -13.25422 -76.48961 29683 ft 440 kts 149°
2026-04-26 04:27 -13.28144 -76.47414 30018 ft 443 kts 149°
2026-04-26 04:28 -13.30848 -76.45874 30307 ft 445 kts 149°
2026-04-26 04:28 -13.33567 -76.44319 30596 ft 447 kts 149°
2026-04-26 04:28 -13.36349 -76.42726 30885 ft 450 kts 149°
2026-04-26 04:28 -13.38913 -76.41260 31153 ft 452 kts 149°
2026-04-26 04:29 -13.41697 -76.39672 31449 ft 454 kts 149°
2026-04-26 04:29 -13.44462 -76.38097 31858 ft 452 kts 149°
2026-04-26 04:29 -13.47142 -76.36570 32266 ft 451 kts 149°
2026-04-26 04:29 -13.50158 -76.34849 32727 ft 451 kts 149°
2026-04-26 04:30 -13.52831 -76.33320 33135 ft 450 kts 149°
2026-04-26 04:30 -13.55617 -76.31726 33558 ft 449 kts 149°
2026-04-26 04:30 -13.58375 -76.30144 33969 ft 449 kts 149°
2026-04-26 04:30 -13.61141 -76.28554 34318 ft 448 kts 149°
2026-04-26 04:31 -13.63872 -76.26988 34652 ft 448 kts 149°
2026-04-26 04:31 -13.65696 -76.25943 34867 ft 448 kts 149°
2026-04-26 04:31 -13.68502 -76.24339 35196 ft 448 kts 149°
2026-04-26 04:31 -13.71303 -76.22738 35525 ft 448 kts 149°
2026-04-26 04:32 -13.73994 -76.21125 35838 ft 446 kts 143°
2026-04-26 04:32 -13.76529 -76.19180 36154 ft 445 kts 140°
2026-04-26 04:32 -13.78943 -76.17269 36453 ft 445 kts 140°
2026-04-26 04:32 -13.81441 -76.15294 36769 ft 445 kts 140°
2026-04-26 04:33 -13.84001 -76.13275 36964 ft 446 kts 140°
2026-04-26 04:33 -13.89060 -76.09284 37007 ft 458 kts 140°
2026-04-26 04:34 -13.94220 -76.05212 37004 ft 466 kts 140°
2026-04-26 04:34 -13.99353 -76.01158 37000 ft 469 kts 140°
2026-04-26 04:35 -14.04569 -75.97042 37001 ft 469 kts 140°
2026-04-26 04:35 -14.09727 -75.92963 37004 ft 469 kts 140°
2026-04-26 04:36 -14.14916 -75.88851 36998 ft 469 kts 140°
2026-04-26 04:36 -14.20050 -75.84785 37006 ft 469 kts 140°
2026-04-26 04:37 -14.25219 -75.80686 36999 ft 469 kts 140°
2026-04-26 04:37 -14.30421 -75.76565 37008 ft 469 kts 140°
2026-04-26 04:38 -14.35589 -75.72473 37002 ft 469 kts 140°
2026-04-26 04:38 -14.40755 -75.68362 37004 ft 468 kts 140°
2026-04-26 04:39 -14.45904 -75.64262 37004 ft 468 kts 140°
2026-04-26 04:39 -14.51077 -75.60155 37000 ft 468 kts 140°
2026-04-26 04:40 -14.56236 -75.56053 36993 ft 469 kts 140°
2026-04-26 04:40 -14.61477 -75.51888 36993 ft 469 kts 140°
2026-04-26 04:41 -14.66652 -75.47770 36991 ft 469 kts 140°
2026-04-26 04:41 -14.71787 -75.43682 36991 ft 469 kts 140°
2026-04-26 04:42 -14.76958 -75.39567 36989 ft 469 kts 140°
2026-04-26 04:42 -14.82131 -75.35441 36991 ft 469 kts 140°
2026-04-26 04:43 -14.87289 -75.31321 36996 ft 469 kts 140°
2026-04-26 04:43 -14.92462 -75.27188 36996 ft 469 kts 140°
2026-04-26 04:44 -14.97668 -75.23030 36998 ft 469 kts 140°
2026-04-26 04:44 -15.02796 -75.18931 36997 ft 469 kts 140°
2026-04-26 04:45 -15.07182 -75.15416 36996 ft 469 kts 140°
2026-04-26 04:45 -15.12345 -75.11277 37008 ft 469 kts 140°
2026-04-26 04:46 -15.17500 -75.07143 37009 ft 469 kts 140°
2026-04-26 04:46 -15.22661 -75.03012 37002 ft 469 kts 140°
2026-04-26 04:47 -15.27789 -74.98909 37004 ft 469 kts 140°
2026-04-26 04:47 -15.32969 -74.94755 37006 ft 469 kts 140°
2026-04-26 04:48 -15.40701 -74.88537 37001 ft 469 kts 140°
2026-04-26 04:48 -15.45861 -74.84388 36999 ft 469 kts 140°
2026-04-26 04:49 -15.51116 -74.80163 37001 ft 469 kts 140°
2026-04-26 04:49 -15.56240 -74.76046 36996 ft 469 kts 140°
2026-04-26 04:50 -15.61402 -74.71890 36996 ft 469 kts 140°
2026-04-26 04:50 -15.66556 -74.67736 36989 ft 469 kts 140°
2026-04-26 04:51 -15.71705 -74.63577 36996 ft 469 kts 140°
2026-04-26 04:51 -15.76860 -74.59408 36997 ft 469 kts 141°
2026-04-26 04:52 -15.82016 -74.55245 36992 ft 470 kts 141°
2026-04-26 04:52 -15.87171 -74.51077 36995 ft 470 kts 141°
2026-04-26 04:53 -15.92328 -74.46907 36994 ft 470 kts 141°
2026-04-26 04:53 -15.97480 -74.42740 36994 ft 470 kts 141°
2026-04-26 04:54 -16.02639 -74.38560 37001 ft 470 kts 141°
2026-04-26 04:54 -16.07789 -74.34381 36997 ft 470 kts 141°
2026-04-26 04:55 -16.12939 -74.30206 36995 ft 470 kts 141°
2026-04-26 04:55 -16.18101 -74.26023 37000 ft 470 kts 141°
2026-04-26 04:56 -16.23221 -74.21870 36995 ft 470 kts 141°
2026-04-26 04:56 -16.28377 -74.17686 36994 ft 471 kts 141°
2026-04-26 04:57 -16.33544 -74.13487 36988 ft 471 kts 141°
2026-04-26 04:57 -16.38703 -74.09287 36990 ft 471 kts 141°
2026-04-26 04:58 -16.43872 -74.05080 36994 ft 472 kts 141°
2026-04-26 04:58 -16.49037 -74.00867 37004 ft 472 kts 141°
2026-04-26 04:59 -16.54236 -73.96625 36996 ft 472 kts 141°
2026-04-26 04:59 -16.59409 -73.92408 37010 ft 472 kts 141°
2026-04-26 05:00 -16.64572 -73.88189 37002 ft 472 kts 140°
2026-04-26 05:00 -16.69738 -73.83963 37010 ft 472 kts 141°
2026-04-26 05:01 -16.74915 -73.79740 37002 ft 472 kts 141°
2026-04-26 05:01 -16.80048 -73.75542 37002 ft 472 kts 141°
2026-04-26 05:02 -16.85242 -73.71285 37007 ft 472 kts 141°
2026-04-26 05:02 -16.90371 -73.67085 37000 ft 472 kts 141°
2026-04-26 05:03 -16.95529 -73.62848 37002 ft 472 kts 141°
2026-04-26 05:03 -17.00729 -73.58573 37008 ft 472 kts 141°
2026-04-26 05:04 -17.05860 -73.54361 37009 ft 472 kts 141°
2026-04-26 05:04 -17.11022 -73.50120 37007 ft 472 kts 141°
2026-04-26 05:05 -17.16186 -73.45864 37005 ft 473 kts 141°
2026-04-26 05:05 -17.21358 -73.41612 37011 ft 473 kts 141°
2026-04-26 05:06 -17.26522 -73.37353 37008 ft 473 kts 141°
2026-04-26 05:06 -17.31691 -73.33088 37018 ft 473 kts 141°
2026-04-26 05:07 -17.36863 -73.28821 37017 ft 473 kts 141°
2026-04-26 05:07 -17.41993 -73.24581 37016 ft 473 kts 141°
2026-04-26 05:08 -17.47188 -73.20287 37013 ft 473 kts 141°
2026-04-26 05:08 -17.52355 -73.16017 37012 ft 473 kts 141°
2026-04-26 05:09 -17.57481 -73.11774 37016 ft 473 kts 141°
2026-04-26 05:09 -17.62640 -73.07496 37015 ft 473 kts 141°
2026-04-26 05:10 -17.67790 -73.03235 37020 ft 473 kts 141°
2026-04-26 05:10 -17.72952 -72.98961 37015 ft 473 kts 141°
2026-04-26 05:11 -17.78114 -72.94682 37015 ft 473 kts 141°
2026-04-26 05:11 -17.83270 -72.90393 37019 ft 473 kts 141°
2026-04-26 05:12 -17.88416 -72.86100 37018 ft 473 kts 141°
2026-04-26 05:12 -17.93570 -72.81815 37019 ft 473 kts 141°
2026-04-26 05:13 -17.98699 -72.77557 37020 ft 473 kts 141°
2026-04-26 05:13 -18.03850 -72.73268 37020 ft 473 kts 141°
2026-04-26 05:14 -18.08994 -72.68967 37018 ft 473 kts 141°
2026-04-26 05:14 -18.14144 -72.64666 37022 ft 473 kts 141°
2026-04-26 05:15 -18.19304 -72.60370 37019 ft 473 kts 141°
2026-04-26 05:15 -18.24425 -72.56090 37020 ft 473 kts 141°
2026-04-26 05:16 -18.29573 -72.51779 37018 ft 473 kts 141°
2026-04-26 05:16 -18.34724 -72.47466 37018 ft 473 kts 141°
2026-04-26 05:17 -18.39883 -72.43144 37018 ft 474 kts 141°
2026-04-26 05:17 -18.45038 -72.38828 37022 ft 474 kts 141°
2026-04-26 05:18 -18.50207 -72.34500 37018 ft 474 kts 141°
2026-04-26 05:18 -18.55366 -72.30168 37018 ft 475 kts 141°
2026-04-26 05:19 -18.60530 -72.25830 37021 ft 475 kts 141°
2026-04-26 05:19 -18.65693 -72.21483 37023 ft 475 kts 141°
2026-04-26 05:20 -18.70862 -72.17142 37020 ft 475 kts 141°
2026-04-26 05:20 -18.76030 -72.12798 37021 ft 475 kts 141°
2026-04-26 05:21 -18.81198 -72.08447 37022 ft 475 kts 141°
2026-04-26 05:21 -18.86367 -72.04084 37025 ft 476 kts 141°
2026-04-26 05:22 -18.91538 -71.99722 37027 ft 476 kts 141°
2026-04-26 05:22 -18.96682 -71.95388 37023 ft 476 kts 141°
2026-04-26 05:23 -19.01858 -71.91019 37026 ft 476 kts 141°
2026-04-26 05:23 -19.07050 -71.86613 37024 ft 476 kts 141°
2026-04-26 05:24 -19.12211 -71.82231 37024 ft 476 kts 141°
2026-04-26 05:24 -19.17387 -71.77858 37028 ft 476 kts 141°
2026-04-26 05:25 -19.22531 -71.73510 37028 ft 476 kts 141°
2026-04-26 05:25 -19.27694 -71.69128 37027 ft 476 kts 141°
2026-04-26 05:26 -19.32857 -71.64733 37027 ft 476 kts 141°
2026-04-26 05:26 -19.38024 -71.60335 37026 ft 476 kts 141°
2026-04-26 05:27 -19.42317 -71.56684 37025 ft 476 kts 141°
2026-04-26 05:27 -19.47479 -71.52292 37054 ft 476 kts 142°
2026-04-26 05:28 -19.53466 -71.47189 37054 ft 475 kts 142°
2026-04-26 05:28 -19.57814 -71.43484 37046 ft 474 kts 142°
2026-04-26 05:29 -19.62986 -71.39071 37046 ft 474 kts 142°
2026-04-26 05:29 -19.68123 -71.34679 37042 ft 474 kts 142°
2026-04-26 05:30 -19.73216 -71.30325 37037 ft 474 kts 142°
2026-04-26 05:30 -19.78348 -71.25934 37036 ft 474 kts 142°
2026-04-26 05:31 -19.83475 -71.21543 37032 ft 474 kts 142°
2026-04-26 05:31 -19.88601 -71.17139 37028 ft 474 kts 142°
2026-04-26 05:32 -19.93729 -71.12740 37028 ft 474 kts 142°
2026-04-26 05:32 -19.98864 -71.08344 37031 ft 474 kts 142°
2026-04-26 05:33 -20.03957 -71.03967 37026 ft 474 kts 142°
2026-04-26 05:33 -20.09079 -70.99553 37028 ft 474 kts 142°
2026-04-26 05:34 -20.14219 -70.95117 37028 ft 474 kts 142°
2026-04-26 05:34 -20.19317 -70.90727 37026 ft 474 kts 142°
2026-04-26 05:35 -20.24447 -70.86310 37028 ft 475 kts 142°
2026-04-26 05:35 -20.29584 -70.81885 37027 ft 475 kts 142°
2026-04-26 05:36 -20.34719 -70.77452 37026 ft 475 kts 142°
2026-04-26 05:36 -20.39890 -70.72980 37025 ft 475 kts 142°
2026-04-26 05:37 -20.45025 -70.68533 37026 ft 476 kts 142°
2026-04-26 05:37 -20.50157 -70.64070 37026 ft 476 kts 142°
2026-04-26 05:38 -20.55292 -70.59613 37024 ft 476 kts 143°
2026-04-26 05:38 -20.60401 -70.55176 37024 ft 476 kts 143°
2026-04-26 05:39 -20.65503 -70.50742 37023 ft 477 kts 143°
2026-04-26 05:39 -20.70649 -70.46272 37028 ft 477 kts 143°
2026-04-26 05:40 -20.75800 -70.41798 37023 ft 477 kts 143°
2026-04-26 05:40 -20.80952 -70.37316 37024 ft 477 kts 143°
2026-04-26 05:41 -20.86100 -70.32834 37026 ft 478 kts 143°
2026-04-26 05:41 -20.91252 -70.28341 37026 ft 478 kts 143°
2026-04-26 05:42 -20.96728 -70.24212 37022 ft 473 kts 156°
2026-04-26 05:42 -21.02916 -70.22091 37034 ft 465 kts 175°
2026-04-26 05:43 -21.09368 -70.21856 37037 ft 460 kts 184°
2026-04-26 05:43 -21.15829 -70.21875 37028 ft 461 kts 184°
2026-04-26 05:44 -21.22242 -70.21890 37030 ft 461 kts 184°
2026-04-26 05:44 -21.28663 -70.21917 37038 ft 461 kts 184°
2026-04-26 05:45 -21.35124 -70.21933 37043 ft 461 kts 184°
2026-04-26 05:45 -21.41538 -70.21950 37038 ft 461 kts 184°
2026-04-26 05:46 -21.47917 -70.21970 37027 ft 461 kts 184°
2026-04-26 05:46 -21.54330 -70.21999 37033 ft 461 kts 184°
2026-04-26 05:47 -21.60742 -70.22020 37038 ft 461 kts 184°
2026-04-26 05:47 -21.67158 -70.22036 37026 ft 461 kts 184°
2026-04-26 05:48 -21.73570 -70.22054 37025 ft 461 kts 184°
2026-04-26 05:48 -21.80062 -70.22074 36999 ft 460 kts 184°
2026-04-26 05:49 -21.83307 -70.22083 36725 ft 461 kts 184°
2026-04-26 05:49 -21.89805 -70.22208 35069 ft 475 kts 189°
2026-04-26 05:49 -21.93097 -70.22712 34443 ft 476 kts 192°
2026-04-26 05:50 -21.96326 -70.23230 33873 ft 474 kts 192°
2026-04-26 05:50 -21.99675 -70.23759 32644 ft 476 kts 192°
2026-04-26 05:50 -22.02964 -70.24272 31379 ft 479 kts 191°
2026-04-26 05:50 -22.06292 -70.24788 30481 ft 483 kts 191°
2026-04-26 05:51 -22.09612 -70.25300 29253 ft 480 kts 191°
2026-04-26 05:51 -22.12898 -70.25808 28011 ft 476 kts 191°
2026-04-26 05:51 -22.16157 -70.26315 27275 ft 464 kts 191°
2026-04-26 05:51 -22.19302 -70.26806 26430 ft 453 kts 191°
2026-04-26 05:52 -22.22455 -70.27308 25389 ft 461 kts 191°
2026-04-26 05:52 -22.25618 -70.27814 24748 ft 459 kts 191°
2026-04-26 05:52 -22.28741 -70.28312 23994 ft 460 kts 191°
2026-04-26 05:52 -22.31940 -70.28821 23385 ft 456 kts 191°
2026-04-26 05:53 -22.35018 -70.29306 22768 ft 451 kts 191°
2026-04-26 05:53 -22.38103 -70.29788 22109 ft 446 kts 191°
2026-04-26 05:53 -22.41161 -70.30266 21474 ft 441 kts 191°
2026-04-26 05:53 -22.44216 -70.30746 20841 ft 436 kts 191°
2026-04-26 05:54 -22.47203 -70.31220 20230 ft 431 kts 191°
2026-04-26 05:54 -22.50160 -70.31690 19637 ft 426 kts 190°
2026-04-26 05:54 -22.53077 -70.32152 19063 ft 422 kts 190°
2026-04-26 05:54 -22.55034 -70.32462 18689 ft 419 kts 190°
2026-04-26 05:55 -22.57907 -70.32918 18122 ft 415 kts 190°
2026-04-26 05:55 -22.60866 -70.33389 17490 ft 411 kts 190°
2026-04-26 05:55 -22.63726 -70.33843 16893 ft 408 kts 190°
2026-04-26 05:55 -22.66486 -70.34280 16339 ft 406 kts 189°
2026-04-26 05:56 -22.69351 -70.34730 15756 ft 403 kts 189°
2026-04-26 05:56 -22.72111 -70.35163 15193 ft 400 kts 189°
2026-04-26 05:56 -22.74863 -70.35596 14614 ft 397 kts 189°
2026-04-26 05:56 -22.77587 -70.36028 14031 ft 395 kts 189°
2026-04-26 05:57 -22.80296 -70.36459 13401 ft 392 kts 189°
2026-04-26 05:57 -22.82990 -70.36889 12749 ft 390 kts 189°
2026-04-26 05:57 -22.85651 -70.37313 12299 ft 382 kts 189°
2026-04-26 05:57 -22.88222 -70.37719 12179 ft 365 kts 189°
2026-04-26 05:58 -22.90687 -70.38075 12056 ft 350 kts 187°
2026-04-26 05:58 -22.93035 -70.38363 11939 ft 338 kts 187°
2026-04-26 05:58 -22.95336 -70.38620 11816 ft 327 kts 186°
2026-04-26 05:58 -22.97561 -70.38861 11696 ft 317 kts 186°
2026-04-26 05:59 -22.99723 -70.39099 11498 ft 308 kts 186°
2026-04-26 05:59 -23.01842 -70.39338 10903 ft 308 kts 186°
2026-04-26 05:59 -23.03995 -70.39585 10143 ft 313 kts 186°
2026-04-26 05:59 -23.06206 -70.39842 9316 ft 318 kts 186°
2026-04-26 06:00 -23.08414 -70.40106 8479 ft 320 kts 186°
2026-04-26 06:00 -23.10607 -70.40380 7671 ft 322 kts 186°
2026-04-26 06:00 -23.12745 -70.40641 6944 ft 322 kts 186°
2026-04-26 06:00 -23.14879 -70.40897 6415 ft 314 kts 186°
2026-04-26 06:01 -23.17014 -70.41150 5962 ft 305 kts 186°
2026-04-26 06:01 -23.19085 -70.41394 5566 ft 294 kts 186°
2026-04-26 06:01 -23.21092 -70.41638 5176 ft 286 kts 186°
2026-04-26 06:01 -23.23046 -70.41877 4785 ft 280 kts 186°
2026-04-26 06:02 -23.24961 -70.42114 4372 ft 274 kts 186°
2026-04-26 06:02 -23.26833 -70.42345 3988 ft 268 kts 186°
2026-04-26 06:02 -23.28670 -70.42573 3622 ft 263 kts 186°
2026-04-26 06:02 -23.30466 -70.42797 3351 ft 254 kts 186°
2026-04-26 06:03 -23.32185 -70.43012 3228 ft 234 kts 186°
2026-04-26 06:03 -23.33694 -70.43202 3052 ft 210 kts 186°
2026-04-26 06:03 -23.35119 -70.43383 2742 ft 193 kts 186°
2026-04-26 06:03 -23.36460 -70.43553 2086 ft 195 kts 186°
2026-04-26 06:04 -23.37790 -70.43721 1686 ft 186 kts 186°
2026-04-26 06:04 -23.38990 -70.43863 1451 ft 165 kts 186°
2026-04-26 06:04 -23.40051 -70.43987 1195 ft 141 kts 186°
2026-04-26 06:04 -23.40973 -70.44095 1001 ft 128 kts 186°
2026-04-26 06:05 -23.41843 -70.44199 817 ft 124 kts 186°
2026-04-26 06:05 -23.42694 -70.44299 639 ft 123 kts 186°
2026-04-26 06:05 -23.43538 -70.44400 468 ft 119 kts 187°
2026-04-26 06:05 -23.44246 -70.44490 462 ft 80 kts 186°
2026-04-26 06:06 -23.44612 -70.44533 460 ft 31 kts 187°
2026-04-26 06:06 -23.44846 -70.44563 461 ft 37 kts 186°
2026-04-26 06:06 -23.45121 -70.44596 463 ft 32 kts 186°
2026-04-26 06:06 -23.45209 -70.44577 464 ft 14 kts 114°
2026-04-26 06:07 -23.45220 -70.44491 462 ft 9 kts 94°
2026-04-26 06:07 -23.45224 -70.44452 462 ft 3 kts 96°
2026-04-26 06:07 -23.45211 -70.44415 460 ft 8 kts 36°
2026-04-26 06:07 -23.45138 -70.44409 462 ft 14 kts
2026-04-26 06:08 -23.45070 -70.44397 462 ft 9 kts 14°
2026-04-26 06:08 -23.45011 -70.44386 462 ft 6 kts
2026-04-26 06:08 -23.44981 -70.44358 460 ft 6 kts 83°
2026-04-26 06:08 -23.44987 -70.44312 462 ft 5 kts 98°
2026-04-26 06:09 -23.44985 -70.44289 462 ft 2 kts 65°
2026-04-26 06:09 -23.44974 -70.44277 460 ft 4 kts 44°
2026-04-26 06:09 -23.44962 -70.44252 462 ft 4 kts 77°
2026-04-26 06:09 -23.44966 -70.44221 462 ft 4 kts 99°
2026-04-26 06:10 -23.44968 -70.44200 461 ft 0 kts 97°